Location: Oroua River
(40.4333°S, 175.4333°E)
Time: 01:47:33
(UTC+00:00)

Cosmos 1707 - Pass Details

Date: 03 February 2023
Orbit: 501 x 514 km, 82.5° (Epoch: 31 March)

Event Time Altitude Azimuth Distance (km) Brightness Sun altitude
Exits shadow 15:21:46 28° 240° (WSW) 1,027 4.0 -20.8°
Drops below altitude 10° 15:24:39 10° 195° (SSW) 1,789 5.8 -20.4°
Sets 15:27:02 0° 183° (S) 2,684 7.0 -20.1°
